User: anonymous   Login
Location: Unspecified
(0.0000°N, 0.0000°E)
Time: 06:37:54
(UTC+00:00)
Language:

RASAT - Orbit

View from above orbital plane
View from above orbital plane
View from above satellite
View from above satellite

Ground track
Ground track

The orbit data is extracted from the following two-line orbital elements,

1 37791U 11044D   19082.75998987  .00000044  00000-0  17408-4 0  9991
2 37791  98.1162 176.7922 0020436 251.8029 108.0960 14.64709056406121
Epoch (UTC): 23 March 2019 18:14:23
Eccentricity: 0.0020436
inclination: 98.1162°
perigee height: 663 km
apogee height: 692 km
right ascension of ascending node: 176.7922°
argument of perigee: 251.8029°
revolutions per day: 14.64709056
mean anomaly at epoch: 108.0960°
orbit number at epoch: 40612

The dashed part of the orbit path shows where the satellite is in the earth's shadow,  

DLR